Regional Weather Roundup
Issued by NWS

Home | Current Version | Previous Version | Text Only | Print | Product List | Glossary On
Versions: 1 2 3 4 5 6 7 8 9 10 11 12 13 14 15 16 17 18 19 20 21 22 23 24 25 26 27 28 29 30 31 32 33 34 35 36 37 38 39 40 41 42 43 44 45 46 47 48 49 50
000
ASUS43 KFSD 251102
RWRSD

WEATHER ROUNDUP FOR SOUTH DAKOTA
NATIONAL WEATHER SERVICE SIOUX FALLS SD
600 AM CDT SAT OCT 25 2014

NOTE: "FAIR" INDICATES FEW OR NO CLOUDS BELOW 12,000 FEET WITH NO
SIGNIFICANT WEATHER AND/OR OBSTRUCTIONS TO VISIBILITY.


SDZ001>005-009-010-012>017-251200-
NORTHWEST AND NORTH CENTRAL SOUTH DAKOTA

CITY           SKY/WX    TMP DP  RH WIND       PRES   REMARKS
FAITH            N/A     44  31  60 NW6       30.13S
MOBRIDGE       PTCLDY    43  34  70 CALM      30.10R
$$

SDZ012>016-024>037-041>051-057-063-072>074-251200-
SOUTHWEST AND SOUTH CENTRAL SOUTH DAKOTA

CITY           SKY/WX    TMP DP  RH WIND       PRES   REMARKS
RAPID CTY ARPT CLEAR     37  30  75 NW6       30.15S
PIERRE         CLEAR     43  34  70 NW6       30.11S
CUSTER         CLEAR     33  28  81 N5        30.19F WCI  29
ELLSWORTH AFB  CLEAR     40  32  71 W5        30.15S
PHILIP         PTCLDY    35  31  85 W7        30.14S WCI  29
PINE RIDGE     CLEAR     29  27  92 E3        30.16S
SPEARFISH      FAIR      37  32  81 SE9       30.16S
WINNER         FAIR      47  35  63 W3        30.13R
$$

SDZ004>011-016>023-039-040-251200-
NORTHEAST SOUTH DAKOTA

CITY           SKY/WX    TMP DP  RH WIND       PRES   REMARKS
ABERDEEN       CLOUDY    50  36  58 NW5       30.09S
WATERTOWN      MOCLDY    50  37  61 NW7       30.07S
SISSETON         N/A     54  32  43 NW12      30.06R
$$

SDZ017-020-022-023-036>040-048>070-251200-
SOUTHEAST SOUTH DAKOTA

CITY           SKY/WX    TMP DP  RH WIND       PRES   REMARKS
SIOUX FALLS    PTCLDY    47  39  74 NW5       30.08R
HURON          PTCLDY    44  38  79 NW6       30.10R
CHAMBERLAIN    CLEAR     40  34  78 W3        30.12S
MITCHELL       CLEAR     45  38  76 NW7       30.11R
YANKTON        CLEAR     45  37  76 W7        30.10R
$$

ABBREVIATIONS USED IN REMARKS
   TC - TEMPERATURE IN CELSIUS
  WCI - WIND CHILL INDEX
   HX - HEAT INDEX
  VSB - VISIBILITY




USA.gov is the U.S. government's official web portal to all federal, state and local government web resources and services.